Location: Newark
(49.8348°N, 24.0280°E)
Time: 15:37:27
(UTC+00:00)

Transit 2A - Pass Details

Date: 28 January 2020
Orbit: 600 x 959 km, 66.7° (Epoch: 23 February)

Event Time Altitude Azimuth Distance (km) Brightness Sun altitude
Rises 19:36:46 0° 261° (W) 2,853 9.6 -42.2°
Enters shadow 19:37:57 - 267° (W) 2,443 9.2 -42.4°
Reaches altitude 10° 19:39:31 10° 279° (W) 1,945 - -42.6°
Maximum altitude 19:42:46 20° 327° (NNW) 1,410 - -43.1°
Drops below altitude 10° 19:46:04 10° 16° (NNE) 1,985 - -43.5°
Sets 19:48:54 0° 33° (NNE) 2,931 - -43.9°
